Regional Weather Roundup
Issued by NWS Cleveland, OH

Home | Current Version | Previous Version | Graphics & Text | Print | Product List | Glossary On
Versions: 1 2 3 4 5 6 7 8 9 10 11 12 13 14 15 16 17 18 19 20 21 22 23 24 25 26 27 28 29 30 31 32 33 34 35 36 37 38 39 40 41 42 43 44 45 46 47 48 49 50
000
ASUS41 KCLE 242210
RWRCLE
OHIO REGIONAL WEATHER ROUNDUP
NATIONAL WEATHER SERVICE WILMINGTON, OH
600 PM EDT THU APR 24 2014

NOTE: "FAIR" INDICATES FEW OR NO CLOUDS BELOW 12,000 FEET WITH NO
SIGNIFICANT WEATHER AND/OR OBSTRUCTIONS TO VISIBILITY.

OHZ001>008-015>018-024>027-034-035-043-044-242300-
   NORTHWEST OHIO

CITY           SKY/WX    TMP DP  RH WIND       PRES   REMARKS
DEFIANCE       CLOUDY    56  23  27 E13       29.95F
FINDLAY        CLOUDY    58  24  27 E10       29.96F
TOLEDO EXPRESS CLOUDY    51  23  33 E14       30.00F
TOLEDO METCALF CLOUDY    50  21  32 E12       30.02F
LIMA           CLOUDY    58  25  28 E12       29.93F
$$

OHZ009>014-019>023-028>033-038-089-242300-
   NORTHEAST OHIO

CITY           SKY/WX    TMP DP  RH WIND       PRES   REMARKS
CLE-HOPKINS    PTSUNNY   52  20  28 NE14      30.05F
CLE-LAKEFRONT  SUNNY     47  30  51 NE16      30.01F
CUY CO. ARPT   PTSUNNY   52  21  30 NE14      30.03F
LORAIN-ELYRIA  MOSUNNY   53  21  28 NE14      30.02F
ASHTABULA      MOSUNNY   53  17  24 N9        30.05S
AKRON-CANTON   PTSUNNY   57  16  20 E6        30.01F
WOOSTER        SUNNY     57  23  26 E8        30.00F
MANSFIELD      PTSUNNY   56  23  27 E8        29.99F
YOUNGSTOWN     PTSUNNY   58  18  21 VRB3      30.01S
$$

OHZ042-051>053-060>062-070>072-077>081-242300-
  SOUTHWEST OHIO

CITY           SKY/WX    TMP DP  RH WIND       PRES   REMARKS
CINC-COVINGTON PTSUNNY   66  33  29 SE9       29.89F
CINC-LUNKEN    PTSUNNY   66  32  28 VRB5      29.91F
HAMILTON       PTSUNNY   67  28  23 E9        29.91F
DAYTON         CLOUDY    62  21  20 SE15      29.92F
WRIGHT-PAT AFB CLOUDY    63  21  20 SE13      29.92F
DAYTON GENERAL PTSUNNY   64  25  22 SE9       29.91F
WILMINGTON     CLOUDY    63  19  18 SE9       29.92F
$$

OHZ036-037-039>041-045>050-054>059-063>069-073>076-082>088-242300-
  CENTRAL AND SOUTHEAST OHIO

CITY           SKY/WX    TMP DP  RH WIND       PRES   REMARKS
COLUMBUS       CLOUDY    62  22  21 E9        29.96F
OSU AIRPORT    CLOUDY    59  21  23 SE8       29.96F
BOLTON FIELD   PTSUNNY   61  23  23 E8        29.96F
RICKENBACK AFB CLOUDY    64   9  11 E9        29.94F
NEWARK         PTSUNNY   60  19  20 E8        29.97F
MARION         CLOUDY    58  22  24 SE7       29.98F
LANCASTER      PTSUNNY   62  27  26 E9        29.96F
ZANESVILLE     CLOUDY    61  21  21 E6        29.99S
NEW PHILLY     MOSUNNY   60  20  21 S7        30.00F
$$



USA.gov is the U.S. government's official web portal to all federal, state and local government web resources and services.